Flag for U.S.A. Weather past 2 weeks in Charleston, South Carolina, U.S.A.

61 °F

Passing clouds.

Feels Like: 61 °F
Forecast: 58 / 77 °F
Wind: 5 mph from East

Location: Charleston Air Force Base Reporting Station

Current Time: Oct 6, 2015 at 10:39:00 PM

Latest Report: Oct 6, 2015 at 9:56 PM

Visibility: 10 mi

Pressure: 29.99 "Hg

Humidity: 90%

Dew point: 58 °F

Location of CharlestonLocation

Historic Weather in Charleston — Graph


Charleston temperature yesterday

Maximum temperature yesterday: 69 °F (at 2:56 AM)
Minimum temperature yesterday: 64 °F (at 8:56 AM)
Average temperature yesterday: 66 °F

Past Weeks' High & Low Weather Summary

High87 °F (Sep 30, 11:56 AM)100% (Sep 29, 4:56 AM)30.07 "Hg (Sep 29, 4:56 AM)
Low61 °F (Oct 6, 4:56 AM)55% (Sep 22, 4:56 PM)29.54 "Hg (Oct 3, 6:56 PM)
Average72 °F86%29.86 "Hg
* Reported Sep 21 8:56 PM — Oct 6 8:56 PM, Charleston, Weather by CustomWeather, © 2015

Note: Actual official high and low records may vary slightly from our data, if they occured in-between our weather recording intervals... More about our weather records


Charleston weather history for previous 24 hours

Time TempWeatherWind HumidityBarometerVisibility
8:56 PM
Tue, Oct 6
62 °FPassing clouds.3 mph90%29.99 "Hg10 mi
7:56 PM63 °FPassing clouds.7 mph87%29.98 "Hg10 mi
6:56 PM65 °FPassing clouds.7 mph81%29.97 "Hg10 mi
5:56 PM68 °FPassing clouds.10 mph73%29.95 "Hg10 mi
4:56 PM69 °FScattered clouds.13 mph70%29.95 "Hg10 mi
4:03 PM69 °FBroken clouds.8 mph70%29.95 "Hg10 mi
2:56 PM67 °FPartly sunny.14 mph76%29.96 "Hg10 mi
1:56 PM67 °FPartly sunny.10 mph73%29.98 "Hg10 mi
12:56 PM66 °FPartly sunny.12 mph75%29.98 "Hg10 mi
11:56 AM66 °FPartly sunny.14 mph75%29.98 "Hg10 mi
10:56 AM64 °FPartly sunny.10 mph78%29.97 "Hg10 mi
9:56 AM62 °FPartly sunny.15 mph83%29.97 "Hg10 mi
8:56 AM62 °FPartly sunny.7 mph86%29.96 "Hg10 mi
7:56 AM61 °FFog.10 mph93%29.96 "Hg2 mi
6:56 AM62 °FOvercast.12 mph86%29.96 "Hg10 mi
5:56 AM62 °FOvercast.7 mph86%29.94 "Hg10 mi
4:56 AM61 °FOvercast.12 mph90%29.93 "Hg10 mi
3:56 AM62 °FOvercast.9 mph90%29.92 "Hg10 mi
2:56 AM62 °FOvercast.10 mph93%29.92 "Hg10 mi
1:56 AM62 °FLight rain. Low clouds.10 mph93%29.93 "Hg10 mi
12:56 AM63 °FOvercast.10 mph90%29.92 "Hg10 mi
11:56 PM
Mon, Oct 5
64 °FOvercast.14 mph87%29.92 "Hg10 mi
10:56 PM64 °FOvercast.15 mph87%29.90 "Hg10 mi
Weather by CustomWeather, © 2015

See weather overviewHow to use our weather pages